ARIANE 5 DEB, 43383

Orbit data source: Space-Track

ARIANE 5 DEB, 43383 is space debris in HEO originally from a launch on Thu, 12 Jun 2008 UTC launched from the French Guiana (FRGUI). Debris objects in space refer to the collection of defunct objects orbiting the Earth. Examples of debris include non-operational satellites, rocket bodies, and fragments generated from explosions, collisions, or faulty payload assembly.

Loading next visibility...
Identifier
43383, 2008-030F
Orbit
HEO
Last TLE update
14 hours ago
Origin
Manufacturer
Thales Alenia
Mission
Spacecraft
Bus & Motor
Unknown
Mass
Unknown
Launch date (UTC)
2008-06-12 (17 years ago)
Launch vehicle
Unknown
Launch site
French Guiana (FRGUI)
Object type
Payload
Rocket body
Debris
Shape & HBR
Unknown
Radar Cross Section
Medium (>0.1 m² and <1 m²)

Expand to show TLE details & history

TLE from 14 hours ago
0 ARIANE 5 DEB
1 43383U 08030F   25192.39091117  .00070583  00000-0  13950+0 0  9992
2 43383   1.8838 164.6189 7064889 312.1444   6.3006  2.47971303139641
Epoch: 2025-07-11T09:22Z
TLE epoch observation values (Epoch: 2025-07-11T09:22:54.725Z)
Latitude
-0.00009°
Longitude
94.02142°
Altitude
1,414.939 km
Speed
9.219 km/s
True Right ascension
10h 57m 10s
True Declination
0° 00' 00"
Sunlit
Object was in daylight at epoch
Visualization orbit readout
Latitude
1.4295°
Longitude
-135.51226°
Altitude
32,902.629 km
Speed
1.733 km/s
Apparent Right ascension
20h 02m 54s
Apparent Declination
-4° 14' 03"
Sunlit
Object is in daylight
Visualization observer readout
Local Sidereal Time
11:48:36
Azimuth
70.316° E
Elevation
-28.057°
Doppler factor
1
Orbital elements
Apogee altitude
32,977.411 km
Perigee altitude
390.902 km
Semi-major axis
23,062.294 km
Eccentricity
0.70649
Inclination
1.8838°
RAAN
164.6189°
Arg. of periapsis
312.1444°
True anomaly
Unknown
Mean anomaly
6.3006°
Eccentric anomaly
Unknown
Mean motion
0.61971 °/min
Orbital period
580.92 mins
BSTAR
0.1395
Loading maneuver chart data...
Loading SW <> Apogee altitude chart data...
Loading historical data...
Loading historical data...
Loading historical data...
Loading historical data...
Loading historical data...
Loading historical data...
Loading historical data...

ARIANE 5 DEB Visibility forecast

Observer location: undefined°, undefined°

Span
Click to sort rows by Start time (UTC) header in descending order
Start Az.
Max El. time (UTC)
Max El. Az.
Max El.
End time (UTC)
End Az.
522 mins2025-07-12 05:10:35.626Z234.687° WSW2025-07-12 07:20:35.626Z208.762° SW32.737°2025-07-12 13:52:35.626Z175.935° S
|